Voltar ao catálogo

STARLINK-33569

AtivoComunicaçõesVLEO
NORAD 62769·PAYLOAD·🇺🇸 United States

Lançado Jan 21, 2025 de Vandenberg Space Force Base

Loading…

Próximas Passagens (próximas 24 horas)

TLE

AtualizadoSource: CelesTrak SupGP

Época: Sep 14, 2026, 20:37 UTC

1 62769C 25015M   26257.85951389 -.00037979  00000+0 -11220-2 0  2574
2 62769  53.1580 160.3338 0001281  91.0349 229.8994 15.34413778    13

Acompanhe STARLINK-33569 em tempo real com AllMySat

Download on the App Store